Precipitable_Water
0.28 0.28 0.27 0.26 0.27 0.31 0.29 0.30 0.27 0.30 0.30 0.34 0.37 0.41 0.42 0.41 0.43 0.43 0.44 0.51 0.58 0.63 0.70 0.77 0.82 0.85 0.90 0.93 0.93 0.93 0.89 0.89 0.86 0.89 0.87 0.86 0.87 0.88 0.86 0.83 0.80 0.79 0.79 0.77
0.28 0.30 0.29 0.26 0.28 0.30 0.30 0.30 0.31 0.29 0.27 0.39 0.44 0.45 0.43 0.41 0.40 0.43 0.48 0.51 0.56 0.62 0.70 0.75 0.81 0.84 0.87 0.89 0.91 0.91 0.88 0.83 0.84 0.82 0.80 0.78 0.76 0.71 0.71 0.72 0.73 0.72 0.73 0.71
0.25 0.32 0.31 0.25 0.27 0.29 0.29 0.33 0.31 0.27 0.32 0.37 0.35 0.35 0.36 0.38 0.40 0.43 0.47 0.52 0.58 0.62 0.68 0.72 0.75 0.76 0.74 0.76 0.77 0.71 0.68 0.67 0.65 0.63 0.63 0.64 0.67 0.68 0.69 0.66 0.68 0.71 0.72 0.72
0.28 0.31 0.21 0.27 0.35 0.35 0.32 0.34 0.37 0.33 0.31 0.33 0.34 0.36 0.38 0.45 0.44 0.44 0.48 0.50 0.56 0.59 0.61 0.64 0.65 0.66 0.66 0.66 0.65 0.62 0.59 0.59 0.62 0.64 0.65 0.67 0.66 0.65 0.64 0.66 0.68 0.68 0.67 0.63
0.30 0.26 0.28 0.31 0.33 0.32 0.30 0.30 0.35 0.30 0.32 0.36 0.38 0.36 0.35 0.42 0.47 0.49 0.51 0.50 0.51 0.54 0.57 0.60 0.62 0.63 0.61 0.58 0.56 0.54 0.54 0.57 0.60 0.62 0.61 0.62 0.62 0.62 0.62 0.61 0.59 0.54 0.50 0.45
0.35 0.27 0.22 0.27 0.36 0.41 0.39 0.21 0.34 0.32 0.28 0.30 0.35 0.26 0.30 0.40 0.45 0.46 0.48 0.51 0.52 0.56 0.59 0.59 0.59 0.59 0.55 0.52 0.52 0.52 0.54 0.56 0.58 0.60 0.60 0.58 0.57 0.56 0.53 0.47 0.42 0.36 0.30 0.28
0.36 0.32 0.32 0.37 0.38 0.42 0.26 0.18 0.37 0.36 0.34 0.30 0.30 0.34 0.42 0.45 0.46 0.50 0.51 0.52 0.55 0.55 0.54 0.56 0.57 0.56 0.51 0.53 0.52 0.56 0.56 0.56 0.56 0.56 0.54 0.53 0.47 0.42 0.37 0.32 0.30 0.30 0.29 0.29
0.40 0.35 0.28 0.44 0.40 0.31 0.31 0.40 0.40 0.41 0.38 0.32 0.38 0.40 0.43 0.46 0.47 0.50 0.50 0.51 0.54 0.54 0.54 0.55 0.55 0.55 0.52 0.51 0.54 0.55 0.54 0.53 0.52 0.48 0.42 0.38 0.34 0.31 0.28 0.26 0.24 0.22 0.22 0.21
0.41 0.38 0.48 0.48 0.43 0.46 0.47 0.43 0.42 0.44 0.42 0.39 0.39 0.40 0.44 0.45 0.48 0.49 0.50 0.51 0.53 0.52 0.49 0.50 0.52 0.53 0.49 0.51 0.52 0.51 0.49 0.44 0.41 0.36 0.31 0.27 0.25 0.23 0.22 0.22 0.22 0.20 0.19 0.19
0.49 0.49 0.51 0.52 0.50 0.51 0.51 0.47 0.50 0.50 0.45 0.41 0.39 0.42 0.44 0.47 0.47 0.47 0.49 0.49 0.49 0.47 0.47 0.48 0.50 0.51 0.51 0.52 0.50 0.47 0.42 0.37 0.32 0.26 0.25 0.24 0.23 0.23 0.22 0.22 0.19 0.18 0.18 0.18
0.49 0.54 0.56 0.55 0.55 0.54 0.54 0.56 0.52 0.48 0.44 0.40 0.41 0.43 0.44 0.45 0.46 0.47 0.48 0.48 0.49 0.49 0.49 0.49 0.51 0.50 0.50 0.49 0.47 0.40 0.34 0.29 0.26 0.25 0.23 0.23 0.24 0.23 0.21 0.21 0.18 0.17 0.18 0.16
0.33 0.44 0.57 0.57 0.59 0.63 0.60 0.57 0.53 0.44 0.42 0.44 0.43 0.42 0.44 0.44 0.48 0.48 0.47 0.48 0.50 0.51 0.50 0.50 0.49 0.47 0.47 0.44 0.40 0.33 0.29 0.26 0.25 0.25 0.25 0.24 0.22 0.21 0.22 0.19 0.18 0.19 0.18 0.16
0.45 0.57 0.60 0.62 0.61 0.62 0.61 0.61 0.55 0.50 0.45 0.42 0.44 0.45 0.46 0.46 0.48 0.48 0.49 0.52 0.52 0.51 0.52 0.50 0.48 0.46 0.43 0.40 0.35 0.31 0.27 0.26 0.26 0.25 0.24 0.22 0.20 0.19 0.18 0.21 0.19 0.18 0.17 0.16
0.53 0.55 0.52 0.59 0.59 0.64 0.64 0.62 0.60 0.56 0.53 0.50 0.48 0.48 0.48 0.48 0.49 0.51 0.52 0.54 0.54 0.54 0.53 0.49 0.45 0.42 0.39 0.36 0.32 0.29 0.27 0.26 0.26 0.25 0.23 0.21 0.20 0.19 0.19 0.17 0.16 0.16 0.17 0.15
0.48 0.50 0.55 0.60 0.65 0.65 0.66 0.64 0.58 0.54 0.52 0.51 0.53 0.52 0.53 0.52 0.53 0.55 0.57 0.57 0.57 0.55 0.51 0.47 0.41 0.38 0.36 0.32 0.30 0.29 0.28 0.26 0.25 0.23 0.21 0.20 0.20 0.19 0.18 0.17 0.16 0.15 0.15 0.15
0.56 0.58 0.59 0.60 0.63 0.62 0.61 0.61 0.60 0.59 0.56 0.56 0.56 0.57 0.58 0.59 0.59 0.60 0.59 0.58 0.55 0.51 0.47 0.42 0.38 0.35 0.33 0.31 0.30 0.29 0.27 0.24 0.22 0.21 0.20 0.19 0.19 0.17 0.16 0.15 0.15 0.14 0.14 0.13
0.50 0.53 0.59 0.60 0.62 0.62 0.62 0.64 0.64 0.63 0.61 0.60 0.60 0.61 0.61 0.61 0.60 0.58 0.58 0.59 0.55 0.47 0.42 0.38 0.34 0.33 0.35 0.31 0.29 0.26 0.25 0.23 0.21 0.20 0.20 0.18 0.17 0.16 0.15 0.15 0.14 0.13 0.13 0.13
0.64 0.62 0.62 0.62 0.61 0.62 0.62 0.64 0.64 0.64 0.64 0.65 0.64 0.63 0.62 0.60 0.58 0.57 0.55 0.51 0.48 0.43 0.37 0.36 0.37 0.34 0.31 0.28 0.26 0.25 0.23 0.22 0.21 0.19 0.18 0.17 0.15 0.15 0.14 0.14 0.13 0.12 0.11 0.11
0.58 0.56 0.57 0.59 0.63 0.64 0.65 0.66 0.66 0.67 0.66 0.67 0.67 0.64 0.62 0.60 0.57 0.53 0.51 0.45 0.39 0.37 0.38 0.37 0.34 0.31 0.28 0.27 0.25 0.24 0.22 0.21 0.20 0.18 0.17 0.15 0.15 0.14 0.13 0.13 0.12 0.11 0.10 0.09
0.63 0.63 0.63 0.66 0.70 0.70 0.67 0.68 0.70 0.69 0.68 0.66 0.63 0.60 0.56 0.54 0.51 0.47 0.45 0.42 0.43 0.39 0.36 0.33 0.31 0.29 0.26 0.25 0.24 0.23 0.22 0.20 0.18 0.17 0.16 0.15 0.14 0.13 0.13 0.12 0.10 0.10 0.09 0.09
0.65 0.67 0.68 0.67 0.67 0.69 0.68 0.68 0.65 0.62 0.61 0.61 0.57 0.54 0.51 0.49 0.47 0.46 0.43 0.40 0.39 0.36 0.33 0.31 0.29 0.27 0.26 0.24 0.23 0.22 0.20 0.19 0.17 0.16 0.15 0.15 0.14 0.13 0.12 0.11 0.10 0.09 0.09 0.09
0.63 0.61 0.62 0.63 0.62 0.61 0.61 0.61 0.60 0.58 0.56 0.54 0.52 0.49 0.47 0.45 0.44 0.43 0.41 0.37 0.36 0.34 0.32 0.30 0.28 0.27 0.25 0.24 0.23 0.22 0.20 0.18 0.17 0.16 0.15 0.14 0.13 0.12 0.11 0.10 0.09 0.09 0.09 0.09
0.58 0.58 0.58 0.57 0.56 0.56 0.56 0.55 0.54 0.52 0.49 0.48 0.46 0.45 0.43 0.42 0.40 0.36 0.33 0.35 0.34 0.32 0.30 0.29 0.27 0.26 0.24 0.24 0.23 0.21 0.20 0.18 0.17 0.16 0.15 0.14 0.13 0.11 0.10 0.09 0.09 0.08 0.08 0.08
0.54 0.54 0.53 0.54 0.53 0.51 0.47 0.47 0.47 0.46 0.45 0.44 0.43 0.42 0.40 0.37 0.37 0.37 0.35 0.33 0.31 0.30 0.29 0.28 0.27 0.26 0.24 0.24 0.22 0.20 0.19 0.18 0.17 0.15 0.14 0.13 0.12 0.11 0.10 0.09 0.08 0.08 0.08 0.08
0.50 0.49 0.48 0.47 0.45 0.44 0.44 0.43 0.42 0.41 0.41 0.39 0.39 0.38 0.37 0.36 0.34 0.33 0.32 0.31 0.30 0.30 0.29 0.27 0.26 0.24 0.23 0.22 0.20 0.19 0.18 0.17 0.15 0.14 0.13 0.12 0.11 0.10 0.09 0.09 0.08 0.08 0.07 0.08
0.44 0.43 0.43 0.43 0.42 0.41 0.40 0.40 0.37 0.37 0.37 0.35 0.35 0.35 0.34 0.34 0.33 0.32 0.31 0.29 0.28 0.27 0.26 0.25 0.24 0.23 0.21 0.20 0.18 0.17 0.16 0.15 0.14 0.13 0.12 0.11 0.10 0.09 0.09 0.08 0.08 0.08 0.08 0.08
0.40 0.39 0.38 0.37 0.37 0.37 0.36 0.35 0.34 0.32 0.33 0.32 0.31 0.31 0.31 0.30 0.29 0.28 0.27 0.26 0.25 0.24 0.22 0.21 0.20 0.19 0.18 0.16 0.15 0.14 0.14 0.13 0.12 0.11 0.10 0.10 0.09 0.09 0.08 0.08 0.08 0.08 0.08 0.07
Wind_Speed
22 20 19 19 18 19 21 21 20 18 20 19 18 17 14 13 14 15 14 13 14 15 15 14 14 14 15 15 16 17 18 19 19 20 20 21 21 21 21 23 25 26 27 29
19 19 19 21 20 21 22 21 20 21 22 19 19 17 17 16 15 15 15 15 14 14 14 14 14 15 15 15 16 17 17 18 19 19 19 19 19 20 21 23 25 27 28 31
21 17 17 16 20 20 20 19 18 19 18 18 18 19 19 17 16 15 14 13 13 13 13 13 14 14 14 14 15 15 16 17 17 17 17 18 19 21 22 25 27 29 31 33
18 15 18 17 13 19 21 19 18 19 18 19 20 17 18 18 18 17 16 15 14 13 12 12 12 12 12 13 14 15 15 15 16 16 17 19 21 23 26 27 28 31 33 34
18 20 19 14 15 14 17 19 19 21 22 20 16 15 16 17 17 16 16 15 14 13 12 12 12 12 12 13 13 13 14 15 16 18 20 22 24 26 28 28 29 30 32 34
17 20 19 17 18 17 15 19 17 17 17 17 16 17 17 15 14 14 14 14 13 12 12 12 12 12 12 12 13 13 15 16 18 20 22 24 26 27 27 28 30 32 33 35
23 20 18 14 14 15 17 18 14 16 16 16 17 17 12 13 13 13 13 13 13 12 12 12 12 12 12 12 14 15 16 18 20 22 24 25 26 27 28 30 32 33 35 37
22 21 22 13 14 20 20 18 17 17 17 17 15 13 13 13 14 14 14 13 13 12 12 12 12 12 12 13 15 17 19 21 23 23 24 26 27 29 30 32 33 35 37 38
23 22 21 21 20 21 19 20 19 19 17 16 15 15 15 15 15 14 14 13 13 12 12 12 13 14 15 16 18 20 21 22 23 25 26 28 29 31 32 33 34 36 38 39
23 24 25 23 23 20 21 21 20 19 18 17 17 17 17 17 16 16 15 14 14 13 13 14 15 16 17 19 21 22 23 24 25 27 28 29 30 32 33 34 36 37 39 41
29 27 24 23 23 23 21 20 20 19 19 19 18 19 19 18 18 17 17 16 16 16 16 16 17 18 20 22 23 24 24 26 27 28 29 30 31 33 34 35 37 39 41 43
26 26 24 24 21 23 23 23 21 20 19 19 20 20 20 20 20 19 18 18 18 18 18 18 19 21 22 24 25 25 26 27 28 29 30 31 32 33 34 36 38 40 42 44
27 25 26 24 22 21 23 23 22 22 22 21 21 22 22 21 21 21 20 20 20 20 20 20 21 23 25 25 26 26 27 28 29 30 31 32 33 34 36 38 39 40 43 46
25 25 26 26 23 21 23 22 21 21 22 22 22 23 22 22 22 22 22 22 21 21 21 22 23 25 25 26 26 27 28 29 30 31 32 33 35 36 38 39 41 42 44 46
27 27 27 25 24 23 22 22 23 22 22 23 24 24 24 24 23 23 23 22 22 22 23 23 24 25 26 26 27 28 29 30 31 32 33 35 36 38 39 41 42 44 46 47
26 26 26 27 26 24 23 24 24 24 24 25 25 25 24 23 23 23 23 24 24 23 22 23 24 25 26 27 28 29 30 31 32 33 35 36 38 39 40 42 43 45 46 48
25 26 27 28 28 27 26 25 25 25 24 24 24 24 24 24 23 24 24 25 23 22 22 23 25 26 27 28 29 30 31 32 33 35 36 38 39 41 42 43 44 45 46 47
23 26 27 28 27 26 25 25 24 24 24 24 24 24 23 23 24 23 22 22 21 22 24 26 27 27 28 29 30 31 32 33 35 36 38 39 41 42 43 44 45 46 46 47
27 27 27 27 28 27 25 24 24 23 23 24 24 23 23 22 21 21 21 23 23 24 26 27 27 28 29 30 31 32 34 35 37 38 39 41 41 43 44 45 45 45 46 46
20 20 21 22 22 23 23 23 23 23 23 22 21 21 20 21 21 22 21 23 26 27 27 28 29 29 30 31 33 34 36 37 38 39 41 42 43 44 44 45 45 45 45 45
14 14 15 15 17 17 18 20 19 20 19 19 18 19 20 21 21 21 24 26 27 28 28 29 30 31 33 34 35 36 37 39 40 41 42 43 44 44 44 44 44 45 44 44
11 12 12 11 11 11 12 14 14 15 15 16 18 19 19 21 23 24 25 26 27 28 30 31 32 34 35 36 38 39 40 41 42 43 44 44 44 44 44 44 44 44 43 42
7 7 9 10 10 10 9 10 12 14 15 17 18 20 21 22 23 24 26 27 28 30 32 33 35 36 38 39 41 42 43 44 44 45 45 45 45 45 45 44 43 43 42 41
5 5 6 6 7 8 9 11 13 14 16 17 18 20 21 22 24 26 28 29 31 33 35 37 38 40 41 42 43 44 45 46 46 46 46 46 45 45 44 43 42 41 40 39
5 6 6 7 9 10 11 13 14 16 17 18 19 21 24 26 28 30 31 33 35 37 39 41 42 43 44 45 46 47 47 47 47 47 46 46 45 44 43 42 41 40 39 38
7 8 9 10 11 13 14 15 16 18 20 22 24 26 28 30 32 34 36 37 39 41 42 44 45 46 47 47 48 48 48 48 47 47 46 46 45 43 42 41 40 39 37 36
9 10 11 12 13 14 15 17 19 21 23 26 28 30 32 34 36 37 39 40 42 43 45 46 47 48 48 49 49 49 48 48 47 46 45 44 43 42 41 40 39 37 36 34
Wind_Direction
239 245 243 243 242 237 237 242 251 261 260 261 264 261 263 263 261 251 249 249 245 242 239 242 246 250 252 257 261 264 268 273 278 280 282 283 283 283 282 283 285 284 286 288
234 240 240 246 247 249 242 249 255 263 264 265 260 256 260 260 260 252 248 250 249 243 240 244 250 254 257 261 265 270 275 279 280 281 283 284 285 286 288 290 288 288 290 291
236 238 243 252 243 243 241 242 250 263 264 263 258 257 258 256 254 249 247 245 245 244 243 245 251 254 258 261 267 273 277 280 282 283 285 287 289 291 291 293 292 291 292 293
234 232 241 247 246 240 242 248 253 262 264 266 267 262 260 258 252 247 244 243 244 242 243 246 248 252 257 264 270 276 280 281 283 285 288 291 294 295 296 296 295 295 296 297
229 234 250 242 238 236 238 253 256 262 268 264 260 259 263 258 250 243 240 240 240 240 242 244 249 255 261 268 274 278 281 284 286 290 292 293 296 298 298 298 299 299 300 301
230 238 243 246 240 240 252 261 264 264 273 257 249 260 264 248 239 233 231 229 229 233 240 247 254 259 264 271 276 281 285 289 292 295 296 298 300 300 301 301 302 303 303 303
232 243 249 245 234 229 240 257 265 260 270 255 254 266 247 234 228 225 223 223 228 237 246 252 256 260 267 273 280 285 289 293 296 298 299 300 301 302 303 303 304 305 305 305
232 240 244 232 232 240 255 259 263 261 264 257 253 248 236 224 220 219 221 226 234 241 248 253 258 262 270 278 284 289 292 295 298 299 300 301 302 303 304 305 305 306 307 308
236 245 247 236 248 252 257 258 261 259 260 254 246 236 225 220 219 221 223 230 238 243 249 257 262 268 275 281 286 291 295 296 298 299 301 302 303 304 304 305 306 308 308 309
247 247 247 246 250 259 257 258 260 260 256 249 236 226 221 220 222 225 229 235 241 246 254 262 269 275 280 284 289 292 294 296 298 300 301 303 304 305 305 307 308 309 310 311
240 246 253 254 254 255 255 257 256 257 252 243 231 224 222 222 225 230 235 241 247 253 259 265 271 279 283 287 290 292 295 297 299 301 303 304 305 306 307 308 309 310 311 312
243 247 244 257 257 253 254 253 254 250 246 239 231 224 225 228 231 235 240 246 253 258 263 269 276 282 286 289 291 293 295 298 300 302 303 304 305 306 307 308 309 310 312 313
242 246 247 254 259 256 257 255 251 248 242 234 232 229 229 233 236 240 244 250 255 260 266 272 278 283 288 290 292 294 296 298 300 302 303 305 306 307 308 308 310 310 312 314
245 244 248 250 255 253 260 256 250 248 243 237 232 230 232 237 239 243 248 253 257 262 268 274 280 285 288 290 292 295 297 299 301 302 304 305 306 307 308 309 310 311 313 315
245 247 251 250 250 253 256 252 245 244 240 237 237 237 238 240 242 247 252 254 258 265 269 275 282 286 288 289 292 295 297 299 301 302 304 305 307 308 309 309 310 312 313 315
247 250 249 247 249 253 253 247 246 244 241 238 239 239 241 244 248 251 253 256 260 264 268 277 283 286 288 290 292 295 298 300 301 302 304 306 307 308 309 310 311 312 314 315
246 248 249 252 254 248 250 250 249 245 242 240 239 239 243 247 249 253 258 260 259 261 269 279 285 287 289 291 293 295 297 299 302 303 305 306 307 308 309 310 311 312 314 315
253 253 253 254 251 251 252 248 244 242 241 240 242 243 244 249 254 255 257 247 257 258 274 282 285 287 290 292 294 296 298 300 302 303 305 306 308 308 309 310 311 312 313 315
257 257 255 252 249 247 245 244 242 242 243 240 238 242 249 250 248 250 252 253 261 267 276 283 285 288 291 292 294 297 299 300 302 303 305 307 308 309 309 310 311 312 313 315
252 254 254 249 246 242 243 243 242 241 240 233 237 241 245 240 254 258 252 260 271 273 277 282 285 288 290 293 295 297 299 301 302 304 306 307 308 309 309 310 311 312 313 314
250 250 249 242 240 241 243 241 237 235 231 234 235 241 248 252 255 260 265 271 273 276 280 283 286 289 291 294 296 298 299 301 302 304 305 307 308 308 309 310 311 312 313 314
246 245 239 235 235 240 236 229 226 224 228 240 248 252 254 259 265 271 274 273 275 278 282 285 288 290 292 294 296 298 299 300 302 303 304 305 307 308 308 309 310 311 312 313
237 240 233 233 234 234 236 234 235 243 251 255 258 263 266 267 270 272 275 278 279 282 285 287 289 291 293 295 296 297 298 299 301 302 303 304 305 306 307 308 309 310 311 312
235 235 234 231 234 240 245 252 256 260 263 266 268 269 270 271 276 280 281 282 283 285 288 290 291 293 294 295 296 297 298 299 299 300 301 302 303 305 306 306 307 308 309 310
257 239 243 255 259 260 260 263 266 269 270 272 274 276 279 281 282 283 284 285 287 289 290 291 292 293 294 295 296 296 297 298 298 299 300 301 302 303 304 305 305 306 307 308
265 265 269 274 271 271 271 272 273 275 277 279 282 284 285 286 286 287 288 289 290 291 292 293 293 294 295 295 296 296 297 297 298 298 299 300 300 301 302 303 304 304 305 306
277 277 276 278 282 282 282 282 282 284 286 286 287 288 288 289 290 290 290 291 292 293 293 294 294 295 295 295 295 296 296 297 297 298 298 298 299 299 300 301 302 302 303 304